TimeEDT,TemperatureF,Dew PointF,Humidity,Sea Level PressureIn,VisibilityMPH,Wind Direction,Wind SpeedMPH,Gust SpeedMPH,PrecipitationIn,Events,Conditions,WindDirDegrees,DateUTC
12:15 AM,66.4,55.8,69,29.83,10.0,NNE,6.9,-,N/A,,Clear,20,2012-10-27 04:15:00
12:35 AM,65.7,55.9,71,29.82,10.0,North,5.8,-,N/A,,Clear,360,2012-10-27 04:35:00
12:55 AM,64.9,56.3,74,29.81,10.0,North,5.8,-,N/A,,Clear,10,2012-10-27 04:55:00
1:15 AM,64.4,56.7,76,29.81,10.0,NNW,6.9,-,N/A,,Clear,340,2012-10-27 05:15:00
1:35 AM,63.7,56.8,78,29.80,10.0,NNW,6.9,-,N/A,,Clear,340,2012-10-27 05:35:00
1:55 AM,62.8,56.7,80,29.79,10.0,North,6.9,-,N/A,,Clear,350,2012-10-27 05:55:00
2:15 AM,62.1,56.5,82,29.78,10.0,NNW,6.9,-,N/A,,Clear,340,2012-10-27 06:15:00
2:35 AM,61.7,56.5,83,29.77,10.0,NNW,8.1,-,N/A,,Clear,340,2012-10-27 06:35:00
2:55 AM,61.5,56.7,84,29.77,10.0,NNW,8.1,-,N/A,,Clear,340,2012-10-27 06:55:00
3:15 AM,61.3,57.2,86,29.76,10.0,North,8.1,-,N/A,,Clear,350,2012-10-27 07:15:00
3:35 AM,61.0,57.6,88,29.75,10.0,North,8.1,-,N/A,,Clear,350,2012-10-27 07:35:00
3:55 AM,61.2,57.9,89,29.75,10.0,North,6.9,-,N/A,,Clear,360,2012-10-27 07:55:00
4:15 AM,61.3,58.3,90,29.74,10.0,NNW,8.1,-,N/A,,Clear,340,2012-10-27 08:15:00
4:35 AM,61.2,58.6,91,29.74,10.0,NNW,8.1,-,N/A,,Clear,340,2012-10-27 08:35:00
4:55 AM,61.2,58.5,91,29.73,10.0,NNW,9.2,-,N/A,,Clear,340,2012-10-27 08:55:00
5:15 AM,61.0,58.5,91,29.73,10.0,North,10.4,-,N/A,,Clear,350,2012-10-27 09:15:00
5:35 AM,60.8,58.3,91,29.74,10.0,North,9.2,-,N/A,,Clear,350,2012-10-27 09:35:00
5:55 AM,60.4,58.3,93,29.74,10.0,North,11.5,16.1,N/A,,Clear,350,2012-10-27 09:55:00
6:15 AM,60.3,58.5,94,29.74,10.0,NNW,11.5,16.1,N/A,,Clear,340,2012-10-27 10:15:00
6:35 AM,60.3,58.5,94,29.74,10.0,North,11.5,-,N/A,,Clear,350,2012-10-27 10:35:00
6:55 AM,60.3,58.6,94,29.74,10.0,North,10.4,-,N/A,,Clear,350,2012-10-27 10:55:00
7:15 AM,60.1,58.6,95,29.74,10.0,North,9.2,-,N/A,,Scattered Clouds,360,2012-10-27 11:15:00
7:55 AM,59.5,59.0,98,29.75,10.0,North,9.2,-,N/A,,Scattered Clouds,350,2012-10-27 11:55:00
8:15 AM,59.7,59.0,97,29.76,10.0,North,9.2,-,N/A,,Mostly Cloudy,350,2012-10-27 12:15:00
8:35 AM,60.3,59.2,96,29.76,10.0,North,8.1,-,N/A,,Overcast,350,2012-10-27 12:35:00
8:55 AM,60.8,59.7,96,29.77,10.0,North,11.5,17.3,N/A,,Overcast,10,2012-10-27 12:55:00
9:15 AM,61.7,59.9,94,29.78,10.0,North,11.5,18.4,N/A,,Overcast,360,2012-10-27 13:15:00
9:35 AM,62.1,59.9,93,29.78,10.0,North,15.0,20.7,N/A,,Overcast,10,2012-10-27 13:35:00
9:55 AM,62.6,60.1,91,29.78,10.0,North,10.4,19.6,N/A,,Overcast,360,2012-10-27 13:55:00
10:15 AM,63.0,60.1,90,29.78,10.0,North,9.2,19.6,N/A,,Overcast,350,2012-10-27 14:15:00
10:35 AM,63.7,60.3,89,29.78,10.0,North,12.7,18.4,N/A,,Overcast,350,2012-10-27 14:35:00
10:55 AM,64.4,60.6,88,29.77,10.0,North,13.8,20.7,N/A,,Overcast,360,2012-10-27 14:55:00
11:35 AM,65.8,60.8,84,29.77,10.0,North,13.8,17.3,N/A,,Overcast,350,2012-10-27 15:35:00
11:55 AM,66.7,61.2,82,29.76,10.0,North,12.7,18.4,N/A,,Mostly Cloudy,350,2012-10-27 15:55:00
12:15 PM,68.0,61.3,79,29.75,10.0,North,11.5,18.4,N/A,,Scattered Clouds,360,2012-10-27 16:15:00
12:35 PM,69.3,61.7,77,29.75,10.0,North,12.7,17.3,N/A,,Clear,350,2012-10-27 16:35:00
12:55 PM,70.0,61.7,75,29.74,10.0,North,9.2,19.6,N/A,,Scattered Clouds,360,2012-10-27 16:55:00
1:15 PM,70.5,61.5,73,29.72,10.0,North,15.0,18.4,N/A,,Clear,10,2012-10-27 17:15:00
1:35 PM,71.2,61.5,71,29.71,10.0,North,11.5,16.1,N/A,,Clear,360,2012-10-27 17:35:00
1:55 PM,71.6,61.3,70,29.70,10.0,NNW,13.8,19.6,N/A,,Clear,340,2012-10-27 17:55:00
2:15 PM,72.1,61.2,68,29.69,10.0,NNW,13.8,19.6,N/A,,Clear,340,2012-10-27 18:15:00
2:35 PM,73.0,61.2,66,29.68,10.0,North,11.5,17.3,N/A,,Scattered Clouds,350,2012-10-27 18:35:00
2:55 PM,73.8,61.0,64,29.68,10.0,NNW,12.7,19.6,N/A,,Mostly Cloudy,340,2012-10-27 18:55:00
3:15 PM,74.3,60.8,63,29.67,10.0,NNW,16.1,21.9,N/A,,Overcast,340,2012-10-27 19:15:00
3:35 PM,74.7,60.3,61,29.67,10.0,NNW,12.7,20.7,N/A,,Mostly Cloudy,340,2012-10-27 19:35:00
3:55 PM,75.2,60.1,59,29.66,10.0,North,13.8,20.7,N/A,,Mostly Cloudy,350,2012-10-27 19:55:00
4:15 PM,75.2,59.9,59,29.66,10.0,NNW,13.8,18.4,N/A,,Mostly Cloudy,330,2012-10-27 20:15:00
4:35 PM,75.2,59.5,58,29.66,10.0,North,11.5,17.3,N/A,,Mostly Cloudy,360,2012-10-27 20:35:00
4:55 PM,74.8,59.5,59,29.66,10.0,North,9.2,-,N/A,,Scattered Clouds,350,2012-10-27 20:55:00
5:15 PM,74.5,59.0,58,29.66,10.0,North,11.5,19.6,N/A,,Scattered Clouds,360,2012-10-27 21:15:00
5:35 PM,73.9,59.0,59,29.66,10.0,North,6.9,-,N/A,,Clear,360,2012-10-27 21:35:00
5:55 PM,73.2,59.2,61,29.66,10.0,North,5.8,-,N/A,,Clear,350,2012-10-27 21:55:00
6:15 PM,72.5,59.4,63,29.65,10.0,NNW,5.8,-,N/A,,Clear,340,2012-10-27 22:15:00
6:35 PM,71.8,59.9,66,29.66,10.0,NW,4.6,-,N/A,,Clear,320,2012-10-27 22:35:00
6:55 PM,71.4,59.5,66,29.66,10.0,Calm,Calm,-,N/A,,Clear,0,2012-10-27 22:55:00
7:15 PM,70.9,59.2,66,29.67,10.0,NNW,3.5,-,N/A,,Clear,330,2012-10-27 23:15:00
7:35 PM,70.3,59.0,67,29.68,10.0,NNW,5.8,-,N/A,,Clear,330,2012-10-27 23:35:00
7:55 PM,70.0,58.6,67,29.69,10.0,NW,3.5,-,N/A,,Scattered Clouds,320,2012-10-27 23:55:00
8:15 PM,69.6,58.6,68,29.69,10.0,NW,6.9,-,N/A,,Scattered Clouds,320,2012-10-28 00:15:00
8:35 PM,69.6,59.4,70,29.70,10.0,NNW,8.1,-,N/A,,Mostly Cloudy,330,2012-10-28 00:35:00
8:55 PM,69.4,59.7,71,29.70,10.0,NW,5.8,-,N/A,,Mostly Cloudy,320,2012-10-28 00:55:00
9:15 PM,69.1,59.9,72,29.70,10.0,NW,5.8,-,N/A,,Scattered Clouds,320,2012-10-28 01:15:00
9:35 PM,68.7,59.9,73,29.71,10.0,NW,4.6,-,N/A,,Clear,320,2012-10-28 01:35:00
9:55 PM,68.0,59.5,74,29.71,10.0,NW,6.9,-,N/A,,Clear,320,2012-10-28 01:55:00
10:15 PM,67.5,59.4,75,29.72,10.0,NW,4.6,-,N/A,,Clear,310,2012-10-28 02:15:00
10:55 PM,66.4,58.8,77,29.72,10.0,NW,6.9,-,N/A,,Clear,320,2012-10-28 02:55:00
11:35 PM,65.1,58.6,79,29.73,10.0,NW,3.5,-,N/A,,Clear,310,2012-10-28 03:35:00
11:55 PM,64.4,58.3,80,29.74,10.0,NW,5.8,-,N/A,,Clear,310,2012-10-28 03:55:00